OPS 4682 DEB, 38401

Orbit data source: Space-Track

OPS 4682 DEB, 38401 is space debris in LEO originally from a launch on Sat, 03 Apr 1965 UTC launched from the Air Force Western Test Range (AFWTR). Debris objects in space refer to the collection of defunct objects orbiting the Earth. Examples of debris include non-operational satellites, rocket bodies, and fragments generated from explosions, collisions, or faulty payload assembly.

Loading next visibility...
Identifier
38401, 1965-027DE
Orbit
LEO
Country
Flag of USUS
Related business
Manufacturer
Unknown
Mission
Spacecraft
Bus & Motor
Unknown
Mass
Unknown
Launch date (UTC)
1965-04-03 (61 years ago)
Launch vehicle
Unknown
Launch site
Air Force Western Test Range (AFWTR)
Object type
Payload
Rocket body
Debris
Shape & HBR
Unknown shape, 0.1 m
Radar Cross Section
Small (<0.1 m²)

Expand to show TLE details & history
Last TLE update: 2 days ago

TLE from 2 days ago
0 OPS 4682 DEB
1 38401U 65027DE  25293.15091387  .00000160  00000-0  53913-3 0  9992
2 38401  90.2456   3.2776 0033871 100.4897 260.0042 12.95208395631301
Epoch: 2025-10-20T03:37Z
TLE epoch observation values (Epoch: 2025-10-20T03:37:18.958Z)
Latitude
0.00002°
Longitude
-79.90874°
Altitude
1,288.384 km
Speed
7.21 km/s
True Right ascension
00h 13m 06s
True Declination
0° 00' 00"
Sunlit
Object was in full shadow at epoch
Visualization orbit readout
Latitude
Unknown
Longitude
Unknown
Altitude
Unknown
Speed
Unknown
Apparent Right ascension
Unknown
Apparent Declination
Unknown
Sunlit
N/A
Visualization observer readout
Local Sidereal Time
12:45:49
Azimuth
Unknown
Elevation
Unknown
Doppler factor
Unknown
Orbital elements
Apogee altitude
1,303.985 km
Perigee altitude
1,252.12 km
Semi-major axis
7,656.189 km
Eccentricity
0.00339
Inclination
90.2456°
RAAN
3.2776°
Arg. of periapsis
100.4897°
True anomaly
259.62224°
Mean anomaly
260.0042°
Eccentric anomaly
259.81319°
Mean motion
3.23984 °/min
Orbital period
111.12 mins
BSTAR
0.00053913
Loading maneuver chart data...
Computing Atmospheric mass density...
Loading historical data...
Loading historical data...
Loading historical data...
Loading historical data...
Loading historical data...
Loading historical data...
Loading historical data...

Documentation

Showing up to 5 results
|